Weather in Gorki

Ukraine / Volyn Oblast     51°55′06″N   25°18′55″E
temp.,
°C
wind,
m/s
gust,
m/s
humid.,
%
clouds,
%
prec.,
mm/h
press.,
hPa
HPBL,
m
11 april, sun
sun1100:00+8ssw411715 0.0 1020209
03:00+6s410785 0.0 1021187
06:00+5s4982100 0.0 1022170
09:00+9s41069100 0.0 1023318
12:00+15s6847100 0.0 1023929
15:00+16sse7840100 0.0 10231513
18:00+15se69437 0.0 10221188
21:00+10se51355100 0.0 1023298
12 april, mon
mon1200:00+9se51458100 0.0 1024370
03:00+7se51360100 0.0 1024331
06:00+6se5136192 0.0 1023299
09:00+8sse6125799 0.0 1023464
12:00+14sse7842100 0.0 1022889
15:00+15sse5745100 0.0 10201215
18:00+16sse46495 0.0 10191198
21:00+11se41062100 0.0 1020176
13 april, tue
tue1300:00+11s386087 0.0 1020200
03:00+10sw2275100 0.0 101938
06:00+9nw239317 0.0 102069
09:00+9nnw568893 0.0 1020356
12:00+12n447495 0.0 1020737
15:00+12n567199 0.0 1020723
18:00+11n6973100 0.0 1019602
21:00+8n61078100 0.0 1019443
14 april, wed
wed1400:00+6n61184100 0.0 1018404
03:00+5n61182100 0.0 1017395
06:00+5n61387100 1.4 1016465
09:00+4n61293100 4.5 1015535
12:00+5n61094100 3.6 1015491
15:00+4nnw5995100 7.4 1015417
18:00+4nnw4796100 2.7 1014315
21:00+4n3597100 2.9 1015209
15 april, thu
thu1500:00+6ene2398100 0.1 1015119
03:00+5ene129898 0.5 101553
06:00+6ne229891 0.0 101569
09:00+7nne2496100 0.0 1016193
12:00+10nne3383100 0.0 1016590
15:00+10n5582100 0.3 1017700
18:00+8n5682100 0.0 1017661
21:00+5n588799 0.0 1019480